星链-1826 (STARLINK-1826 )

导读

STARLINK-1826是美国太空探索技术公司(SpaceX)星链星座中的一颗卫星,星链旨在构建全球卫星互联网系统。它于2020年10月18日发射,作为低轨卫星,服务全球互联网覆盖,尤其支持偏远地区网络接入,同时也推动了全球卫星通信产业发展。

基本信息
目录编号:
46723
目录名称:
STARLINK-1826
国际标识:
2020-073BF
轨道中心:
EARTH
卫星名称:
星链-1826
卫星全名:
星链-1826 (STARLINK-1826 )
卫星状态:
已陨落 最后检测时间 2026-08-06
发射日期:
2020-10-18 UTC
国别 :
美国 (US)
星等 :
--
该卫星已列入 空间交会检测服务 Space Conjunction Data Service (SCDS) ,当前飞行风险评估等级: 无高风险
轨道信息
数据来源 国际轨道数据
星历时间: 2026-08-05T12:55:44+0800
轨道信息已过期37天
半长轴: 6562.724km
偏心率: 0.0005743
轨道倾角: 53.022°
近地点辐角 245.238°
升交点赤经 156.362°
平近点角 114.807°
近地点: 180.818km
远地点: 188.356km
周期: 88.183分钟
每日圈数: 16.329638
详细信息
固有亮度:
5
最大亮度:
2.5
卫星平台:
Starlink V1.0
覆盖范围:
全球
运营商:
太空探索技术公司
运营商所在国:
美国
制造商(研发单位):
太空探索技术公司
制造商所在国:
美国
使用方式:
暂无
卫星简介
星链(Starlink)计划是由太空探索技术公司(SpaceX)提出的一个巨型低轨卫星互联网星座项目,计划在2019年至2024年间在太空搭建由约1.2万颗卫星组成的“星链”网络,其中1584颗将部署在地球上空550千米处的近地轨道,并从2020年开始工作。该卫星仍在工作。
与全量物体交会距离演化趋势
与全量物体交会风险概率演化趋势